Time,TemperatureF,DewpointF,PressureIn,WindDirection,WindDirectionDegrees,WindSpeedMPH,WindSpeedGustMPH,Humidity,HourlyPrecipIn,Conditions,Clouds,dailyrainin,SoftwareType,DateUTC
2013-05-05 00:06:00,22.9,17.0,30.01,SE,124,0.0,0.0,78,0.00,,,0.00,weatherlink.com 1.10,2013-05-05 08:06:00,
2013-05-05 00:22:00,22.8,18.0,30.01,SE,124,0.0,0.0,80,0.00,,,0.00,weatherlink.com 1.10,2013-05-05 08:22:00,
2013-05-05 00:37:00,22.4,18.0,30.02,SE,124,0.0,0.0,82,0.00,,,0.00,weatherlink.com 1.10,2013-05-05 08:37:00,
2013-05-05 00:52:00,22.4,18.0,30.02,SE,124,0.0,0.0,82,0.00,,,0.00,weatherlink.com 1.10,2013-05-05 08:52:00,
2013-05-05 01:07:00,22.5,18.0,30.03,SE,124,0.0,0.0,82,0.00,,,0.00,weatherlink.com 1.10,2013-05-05 09:07:00,
2013-05-05 01:22:00,23.0,18.0,30.03,SE,124,0.0,0.0,82,0.00,,,0.00,weatherlink.com 1.10,2013-05-05 09:22:00,
2013-05-05 01:37:00,23.1,19.0,30.03,SE,124,0.0,0.0,83,0.00,,,0.00,weatherlink.com 1.10,2013-05-05 09:37:00,
2013-05-05 01:52:00,23.5,19.0,30.04,SE,124,0.0,0.0,82,0.00,,,0.00,weatherlink.com 1.10,2013-05-05 09:52:00,
2013-05-05 02:07:00,24.1,19.0,30.04,SE,124,0.0,0.0,82,0.00,,,0.00,weatherlink.com 1.10,2013-05-05 10:07:00,
2013-05-05 02:22:00,23.8,19.0,30.04,SE,124,0.0,0.0,81,0.00,,,0.00,weatherlink.com 1.10,2013-05-05 10:22:00,
2013-05-05 02:37:00,23.0,18.0,30.04,SE,124,0.0,0.0,82,0.00,,,0.00,weatherlink.com 1.10,2013-05-05 10:37:00,
2013-05-05 02:52:00,22.5,18.0,30.05,SE,124,0.0,0.0,82,0.00,,,0.00,weatherlink.com 1.10,2013-05-05 10:52:00,
2013-05-05 03:07:00,22.3,18.0,30.06,SE,124,0.0,0.0,82,0.00,,,0.00,weatherlink.com 1.10,2013-05-05 11:07:00,
2013-05-05 03:22:00,22.7,19.0,30.06,SE,124,0.0,0.0,84,0.00,,,0.00,weatherlink.com 1.10,2013-05-05 11:22:00,
2013-05-05 03:37:00,22.7,18.0,30.06,SE,124,0.0,0.0,83,0.00,,,0.00,weatherlink.com 1.10,2013-05-05 11:37:00,
2013-05-05 03:52:00,22.3,18.0,30.07,SE,124,0.0,0.0,84,0.00,,,0.00,weatherlink.com 1.10,2013-05-05 11:52:00,
2013-05-05 04:07:00,22.1,17.0,30.07,SE,124,0.0,0.0,82,0.00,,,0.00,weatherlink.com 1.10,2013-05-05 12:07:00,
2013-05-05 04:22:00,22.8,17.0,30.07,SE,124,0.0,0.0,78,0.00,,,0.00,weatherlink.com 1.10,2013-05-05 12:22:00,
2013-05-05 04:37:00,22.1,17.0,30.08,SE,124,0.0,0.0,82,0.00,,,0.00,weatherlink.com 1.10,2013-05-05 12:37:00,
2013-05-05 04:52:00,21.6,17.0,30.08,SE,124,0.0,0.0,83,0.00,,,0.00,weatherlink.com 1.10,2013-05-05 12:52:00,
2013-05-05 05:07:00,21.6,18.0,30.09,SE,124,0.0,0.0,84,0.00,,,0.00,weatherlink.com 1.10,2013-05-05 13:07:00,
2013-05-05 05:22:00,21.5,17.0,30.09,SE,124,0.0,0.0,84,0.00,,,0.00,weatherlink.com 1.10,2013-05-05 13:22:00,
2013-05-05 05:37:00,21.7,17.0,30.09,SE,124,0.0,0.0,82,0.00,,,0.00,weatherlink.com 1.10,2013-05-05 13:37:00,
2013-05-05 05:52:00,22.2,18.0,30.09,SE,124,0.0,0.0,83,0.00,,,0.00,weatherlink.com 1.10,2013-05-05 13:52:00,
2013-05-05 06:07:00,23.4,18.0,30.10,SE,124,0.0,1.0,80,0.00,,,0.00,weatherlink.com 1.10,2013-05-05 14:07:00,
2013-05-05 06:22:00,23.5,19.0,30.10,West,270,0.0,0.0,81,0.00,,,0.00,weatherlink.com 1.10,2013-05-05 14:22:00,
2013-05-05 06:37:00,23.9,18.0,30.11,WNW,297,0.0,1.0,78,0.00,,,0.00,weatherlink.com 1.10,2013-05-05 14:37:00,
2013-05-05 06:52:00,24.5,19.0,30.11,East,90,0.0,1.0,78,0.00,,,0.00,weatherlink.com 1.10,2013-05-05 14:52:00,
2013-05-05 07:07:00,25.1,19.0,30.11,NW,311,0.0,0.0,77,0.00,,,0.00,weatherlink.com 1.10,2013-05-05 15:07:00,
2013-05-05 07:22:00,25.8,19.0,30.12,NW,311,0.0,0.0,76,0.00,,,0.00,weatherlink.com 1.10,2013-05-05 15:22:00,
2013-05-05 07:37:00,26.0,19.0,30.12,NW,308,0.0,0.0,75,0.00,,,0.00,weatherlink.com 1.10,2013-05-05 15:37:00,
2013-05-05 07:52:00,25.9,19.0,30.12,WNW,295,0.0,0.0,75,0.00,,,0.00,weatherlink.com 1.10,2013-05-05 15:52:00,
2013-05-05 08:07:00,26.5,19.0,30.13,WNW,295,0.0,0.0,74,0.00,,,0.00,weatherlink.com 1.10,2013-05-05 16:07:00,
2013-05-05 08:22:00,27.1,20.0,30.13,SW,221,0.0,0.0,73,0.00,,,0.00,weatherlink.com 1.10,2013-05-05 16:22:00,
2013-05-05 08:38:00,28.0,19.0,30.13,SE,131,0.0,0.0,70,0.00,,,0.00,weatherlink.com 1.10,2013-05-05 16:38:00,
2013-05-05 08:53:00,28.7,19.0,30.14,SSE,153,0.0,1.0,68,0.00,,,0.00,weatherlink.com 1.10,2013-05-05 16:53:00,
2013-05-05 09:08:00,29.6,18.0,30.14,SW,219,0.0,3.0,63,0.00,,,0.00,weatherlink.com 1.10,2013-05-05 17:08:00,
2013-05-05 09:23:00,29.2,17.0,30.14,SSE,153,0.0,3.0,60,0.00,,,0.00,weatherlink.com 1.10,2013-05-05 17:23:00,
2013-05-05 09:38:00,29.1,17.0,30.14,WNW,282,0.0,4.0,60,0.00,,,0.00,weatherlink.com 1.10,2013-05-05 17:38:00,
2013-05-05 09:53:00,30.1,16.0,30.14,SSE,156,0.0,4.0,57,0.00,,,0.00,weatherlink.com 1.10,2013-05-05 17:53:00,
2013-05-05 10:08:00,31.1,17.0,30.14,SE,126,1.0,3.0,55,0.00,,,0.00,weatherlink.com 1.10,2013-05-05 18:08:00,
2013-05-05 10:23:00,32.2,15.0,30.14,West,276,1.0,4.0,50,0.00,,,0.00,weatherlink.com 1.10,2013-05-05 18:23:00,
2013-05-05 10:38:00,32.8,13.0,30.14,West,278,0.0,7.0,44,0.00,,,0.00,weatherlink.com 1.10,2013-05-05 18:38:00,
2013-05-05 10:53:00,33.0,12.0,30.14,West,273,1.0,8.0,41,0.00,,,0.00,weatherlink.com 1.10,2013-05-05 18:53:00,
2013-05-05 11:09:00,33.3,12.0,30.14,South,173,1.0,6.0,42,0.00,,,0.00,weatherlink.com 1.10,2013-05-05 19:09:00,
2013-05-05 11:23:00,33.5,13.0,30.14,West,264,2.0,7.0,43,0.00,,,0.00,weatherlink.com 1.10,2013-05-05 19:23:00,
2013-05-05 11:38:00,34.2,14.0,30.14,WNW,297,2.0,7.0,44,0.00,,,0.00,weatherlink.com 1.10,2013-05-05 19:38:00,
2013-05-05 11:53:00,34.3,13.0,30.14,SW,229,1.0,8.0,41,0.00,,,0.00,weatherlink.com 1.10,2013-05-05 19:53:00,
2013-05-05 12:08:00,33.8,13.0,30.14,NW,311,0.0,8.0,42,0.00,,,0.00,weatherlink.com 1.10,2013-05-05 20:08:00,
2013-05-05 12:23:00,34.8,13.0,30.14,SE,133,2.0,8.0,40,0.00,,,0.00,weatherlink.com 1.10,2013-05-05 20:23:00,
2013-05-05 12:38:00,34.7,13.0,30.14,SE,136,1.0,9.0,41,0.00,,,0.00,weatherlink.com 1.10,2013-05-05 20:38:00,
2013-05-05 12:53:00,35.6,13.0,30.15,SE,129,2.0,7.0,39,0.00,,,0.00,weatherlink.com 1.10,2013-05-05 20:53:00,
2013-05-05 13:08:00,35.7,13.0,30.15,West,281,1.0,7.0,39,0.00,,,0.00,weatherlink.com 1.10,2013-05-05 21:08:00,
2013-05-05 13:23:00,36.1,15.0,30.14,SSE,152,0.0,7.0,42,0.00,,,0.00,weatherlink.com 1.10,2013-05-05 21:23:00,
2013-05-05 13:38:00,36.6,12.0,30.14,WNW,300,3.0,6.0,37,0.00,,,0.00,weatherlink.com 1.10,2013-05-05 21:38:00,
2013-05-05 13:53:00,37.5,14.0,30.14,SSW,197,6.0,6.0,39,0.00,,,0.00,weatherlink.com 1.10,2013-05-05 21:53:00,
2013-05-05 14:08:00,37.3,14.0,30.14,SSE,153,3.0,9.0,38,0.00,,,0.00,weatherlink.com 1.10,2013-05-05 22:08:00,
2013-05-05 14:23:00,37.7,13.0,30.14,WNW,294,2.0,6.0,36,0.00,,,0.00,weatherlink.com 1.10,2013-05-05 22:23:00,
2013-05-05 14:38:00,38.1,13.0,30.14,SE,131,4.0,8.0,36,0.00,,,0.00,weatherlink.com 1.10,2013-05-05 22:38:00,
2013-05-05 14:53:00,38.0,10.0,30.14,NNW,335,3.0,8.0,32,0.00,,,0.00,weatherlink.com 1.10,2013-05-05 22:53:00,
2013-05-05 15:08:00,38.9,11.0,30.14,SE,135,5.0,6.0,32,0.00,,,0.00,weatherlink.com 1.10,2013-05-05 23:08:00,
2013-05-05 15:23:00,38.8,13.0,30.14,South,179,3.0,6.0,35,0.00,,,0.00,weatherlink.com 1.10,2013-05-05 23:23:00,
2013-05-05 15:39:00,39.0,14.0,30.14,SSE,153,2.0,6.0,36,0.00,,,0.00,weatherlink.com 1.10,2013-05-05 23:39:00,
2013-05-05 15:54:00,39.2,13.0,30.13,SSE,167,2.0,5.0,34,0.00,,,0.00,weatherlink.com 1.10,2013-05-05 23:54:00,
2013-05-05 16:09:00,39.7,12.0,30.13,WSW,252,1.0,5.0,32,0.00,,,0.00,weatherlink.com 1.10,2013-05-06 00:09:00,
2013-05-05 16:24:00,40.0,12.0,30.13,SW,217,2.0,5.0,32,0.00,,,0.00,weatherlink.com 1.10,2013-05-06 00:24:00,
2013-05-05 16:39:00,40.3,12.0,30.13,West,271,0.0,7.0,31,0.00,,,0.00,weatherlink.com 1.10,2013-05-06 00:39:00,
2013-05-05 16:54:00,40.5,12.0,30.13,WNW,292,1.0,5.0,31,0.00,,,0.00,weatherlink.com 1.10,2013-05-06 00:54:00,
2013-05-05 17:09:00,40.5,11.0,30.12,SSE,158,2.0,8.0,30,0.00,,,0.00,weatherlink.com 1.10,2013-05-06 01:09:00,
2013-05-05 17:24:00,40.7,11.0,30.12,East,98,2.0,4.0,30,0.00,,,0.00,weatherlink.com 1.10,2013-05-06 01:24:00,
2013-05-05 17:39:00,39.7,11.0,30.12,WNW,283,2.0,7.0,31,0.00,,,0.00,weatherlink.com 1.10,2013-05-06 01:39:00,
2013-05-05 17:54:00,40.0,11.0,30.12,SSW,213,0.0,5.0,31,0.00,,,0.00,weatherlink.com 1.10,2013-05-06 01:54:00,
2013-05-05 18:09:00,39.8,12.0,30.12,SSE,154,3.0,5.0,32,0.00,,,0.00,weatherlink.com 1.10,2013-05-06 02:09:00,
2013-05-05 18:24:00,39.5,14.0,30.12,SSE,157,0.0,4.0,35,0.00,,,0.00,weatherlink.com 1.10,2013-05-06 02:24:00,
2013-05-05 18:39:00,38.7,10.0,30.11,East,101,0.0,6.0,31,0.00,,,0.00,weatherlink.com 1.10,2013-05-06 02:39:00,
2013-05-05 18:54:00,38.4,13.0,30.12,West,275,1.0,3.0,36,0.00,,,0.00,weatherlink.com 1.10,2013-05-06 02:54:00,
2013-05-05 19:09:00,38.4,13.0,30.12,West,274,2.0,3.0,35,0.00,,,0.00,weatherlink.com 1.10,2013-05-06 03:09:00,
2013-05-05 19:24:00,38.1,11.0,30.11,West,266,0.0,4.0,33,0.00,,,0.00,weatherlink.com 1.10,2013-05-06 03:24:00,
2013-05-05 19:39:00,37.7,10.0,30.11,SSE,162,0.0,4.0,32,0.00,,,0.00,weatherlink.com 1.10,2013-05-06 03:39:00,
2013-05-05 19:54:00,36.9,10.0,30.11,West,270,0.0,6.0,33,0.00,,,0.00,weatherlink.com 1.10,2013-05-06 03:54:00,
2013-05-05 20:09:00,36.3,10.0,30.11,WSW,240,0.0,2.0,34,0.00,,,0.00,weatherlink.com 1.10,2013-05-06 04:09:00,
2013-05-05 20:24:00,35.9,11.0,30.11,SSE,148,0.0,3.0,36,0.00,,,0.00,weatherlink.com 1.10,2013-05-06 04:24:00,
2013-05-05 20:39:00,35.4,10.0,30.11,South,184,0.0,3.0,35,0.00,,,0.00,weatherlink.com 1.10,2013-05-06 04:39:00,
2013-05-05 20:54:00,34.6,11.0,30.11,SSE,147,0.0,1.0,38,0.00,,,0.00,weatherlink.com 1.10,2013-05-06 04:54:00,
2013-05-05 21:09:00,33.9,12.0,30.11,SSE,162,0.0,3.0,40,0.00,,,0.00,weatherlink.com 1.10,2013-05-06 05:09:00,
2013-05-05 21:24:00,33.3,11.0,30.12,WNW,300,0.0,1.0,40,0.00,,,0.00,weatherlink.com 1.10,2013-05-06 05:24:00,
2013-05-05 21:39:00,32.4,15.0,30.12,NNE,15,0.0,1.0,48,0.00,,,0.00,weatherlink.com 1.10,2013-05-06 05:39:00,
2013-05-05 21:54:00,30.9,15.0,30.12,ENE,63,0.0,1.0,51,0.00,,,0.00,weatherlink.com 1.10,2013-05-06 05:54:00,
2013-05-05 22:09:00,29.8,17.0,30.12,ENE,63,0.0,0.0,59,0.00,,,0.00,weatherlink.com 1.10,2013-05-06 06:09:00,
2013-05-05 22:24:00,28.5,16.0,30.12,ENE,63,0.0,0.0,60,0.00,,,0.00,weatherlink.com 1.10,2013-05-06 06:24:00,
2013-05-05 22:39:00,27.7,17.0,30.13,ENE,63,0.0,0.0,64,0.00,,,0.00,weatherlink.com 1.10,2013-05-06 06:39:00,
2013-05-05 22:54:00,27.3,18.0,30.13,ENE,63,0.0,0.0,67,0.00,,,0.00,weatherlink.com 1.10,2013-05-06 06:54:00,
2013-05-05 23:09:00,26.5,18.0,30.13,ENE,63,0.0,0.0,70,0.00,,,0.00,weatherlink.com 1.10,2013-05-06 07:09:00,
2013-05-05 23:24:00,26.2,18.0,30.13,ENE,63,0.0,0.0,70,0.00,,,0.00,weatherlink.com 1.10,2013-05-06 07:24:00,
2013-05-05 23:39:00,25.8,18.0,30.13,ENE,63,0.0,1.0,72,0.00,,,0.00,weatherlink.com 1.10,2013-05-06 07:39:00,
2013-05-05 23:54:00,25.8,18.0,30.13,ENE,63,0.0,0.0,71,0.00,,,0.00,weatherlink.com 1.10,2013-05-06 07:54:00,